Regional Weather Roundup
Issued by NWS Kansas City/Pleasant Hill, MO

Home | Current Version | Previous Version | Text Only | Print | Product List | Glossary On
Versions: 1 2 3 4 5 6 7 8 9 10 11 12 13 14 15 16 17 18 19 20 21 22 23 24 25 26 27 28 29 30 31 32 33 34 35 36 37 38 39 40 41 42 43 44 45 46 47 48 49 50
000
ASUS43 KEAX 272211
RWREAX

WEATHER ROUNDUP FOR EASTERN KANSAS AND NORTHWEST MISSOURI
NATIONAL WEATHER SERVICE KANSAS CITY/PLEASANT HILL MO
400 PM CST THU NOV 27 2014

KSZ040-057-103>105-MOZ028-029-037-043-272300-
...KANSAS CITY METROPOLITAN AREA...

CITY           SKY/WX    TMP DP  RH WIND       PRES   REMARKS
K.C. INTL      PTCLDY    35  21  56 SE9       30.38F WCI  28
K.C. DOWNTOWN  CLEAR     36  21  54 E12       30.39F WCI  28
LEES SUMMIT    CLEAR     37  20  50 S6        30.40F WCI  32
OLATHE - IXD   CLEAR     36  20  52 S10       30.38F WCI  28
OLATHE - OJC   CLEAR     38  20  48 S8        30.38F WCI  32
LAWRENCE       CLEAR     36  20  52 S9        30.38F WCI  29

$$

MOZ001>008-011>017-020>025-030>033-038>040-044>046-053-054-272300-
...NORTHERN AND CENTRAL MISSOURI...

CITY           SKY/WX    TMP DP  RH WIND       PRES   REMARKS
ST. JOSEPH     CLEAR     32  18  56 E10       30.41F WCI  24
MOSBY          CLEAR     32  21  64 E5        30.42F WCI  27
WARRENSBURG    CLEAR     34  23  64 E6        30.43F WCI  29
WHITEMAN AFB   CLEAR     35  22  59 CALM      30.43F
CLINTON        CLEAR     37  27  65 CALM      30.45F
SEDALIA        CLEAR     36  22  56 CALM      30.45F
WARSAW         NOT AVBL
MARSHALL       CLEAR     34  23  64 CALM      30.46F
CHILLICOTHE      N/A     30  16  56 CALM      30.45F
KIRKSVILLE     PTCLDY    24  15  68 NE6       30.45S WCI  17

$$

MOZ041-047>049-056>058-063>065-088>090-097-272300-
...EASTERN AND SOUTHERN MISSOURI...

CITY           SKY/WX    TMP DP  RH WIND       PRES   REMARKS
ST. LOUIS INTL MOCLDY    34  19  54 NW10      30.46R WCI  26
SPIRIT OF STL  CLEAR     35  21  56 NW9       30.45S WCI  28
COLUMBIA       CLOUDY    34  23  64 W6        30.44S WCI  29
JEFFERSON CITY CLOUDY    35  23  61 W5        30.46F WCI  31
MEXICO         MOCLDY    34  27  75 W8        30.44S WCI  27
ROLLA          PTCLDY    33  22  63 NW6       30.42R WCI  28
LEBANON        CLEAR     39  21  48 SW5       30.42F
OSAGE BEACH    CLEAR     37  19  48 CALM      30.44S
SPRINGFIELD    CLEAR     41  19  41 VRB5      30.42F
NEVADA         CLEAR     39  23  52 S6        30.43F WCI  35
JOPLIN         CLEAR     43  18  36 SE3       30.42F
WEST PLAINS    CLEAR     42  18  37 W7        30.43S

$$

IAZ060-094-KSZ022-034>040-054-083-096-NEZ052-066-093-272300-
...KANSAS...SOUTHEAST NEBRASKA AND IOWA...

CITY           SKY/WX    TMP DP  RH WIND       PRES   REMARKS
TOPEKA         CLEAR     40  20  44 SE10      30.37F WCI  33
MANHATTAN      CLEAR     43  17  35 S12       30.31F
EMPORIA        SUNNY     41  17  38 S15       30.34F WCI  33
CHANUTE        SUNNY     42  20  41 SE12      30.39F
WICHITA        MOSUNNY   45  15  30 S18       30.31F
OMAHA          MOCLDY    22   8  55 SE14      30.36F WCI   9
LINCOLN        PTCLDY    32  14  47 SE14      30.29F WCI  22
FALLS CITY     PTCLDY    30  13  49 SE12      30.36F WCI  20
LAMONI         CLOUDY    21  10  62 E5        30.42S WCI  15
DES MOINES     CLOUDY    14  -1  51 CALM      30.45S

$$




USA.gov is the U.S. government's official web portal to all federal, state and local government web resources and services.